TimeWET,TemperatureF,Dew PointF,Humidity,Sea Level PressureIn,VisibilityMPH,Wind Direction,Wind SpeedMPH,Gust SpeedMPH,PrecipitationIn,Events,Conditions,WindDirDegrees,DateUTC
12:00 AM,40,37,83,30.11,1,SSE,6.9,,,,Mist,160,2013-03-01 00:00:00
12:00 AM,39.2,37.4,93,30.06,1.4,SSE,6.9,-,N/A,,Mostly Cloudy,160,2013-03-01 00:00:00
12:30 AM,41.0,37.4,87,30.06,-9999.0,SSE,4.6,-,N/A,,Mostly Cloudy,150,2013-03-01 00:30:00
1:00 AM,39.2,37.4,93,30.06,-9999.0,Calm,Calm,-,N/A,,Mostly Cloudy,0,2013-03-01 01:00:00
1:30 AM,39.2,35.6,87,30.04,-9999.0,ESE,4.6,-,N/A,,Mist,110,2013-03-01 01:30:00
2:00 AM,37.4,35.6,93,30.04,3.1,SSE,6.9,-,N/A,,Unknown,150,2013-03-01 02:00:00
2:30 AM,37.4,33.8,87,30.04,3.7,SSE,6.9,-,N/A,,Scattered Clouds,160,2013-03-01 02:30:00
3:00 AM,37,34,84,30.07,4,SE,4.6,,,,Clear,130,2013-03-01 03:00:00
3:00 AM,37.4,33.8,87,30.04,3.1,SE,4.6,-,N/A,,Scattered Clouds,130,2013-03-01 03:00:00
3:30 AM,37.4,33.8,87,30.04,3.7,SE,4.6,-,N/A,,Scattered Clouds,130,2013-03-01 03:30:00
4:00 AM,35.6,33.8,93,30.04,3.1,SSE,4.6,-,N/A,,Scattered Clouds,160,2013-03-01 04:00:00
4:30 AM,35.6,32.0,87,30.04,1.9,South,4.6,-,N/A,,Scattered Clouds,180,2013-03-01 04:30:00
5:00 AM,35.6,32.0,87,30.06,1.2,South,3.5,-,N/A,,Scattered Clouds,180,2013-03-01 05:00:00
5:30 AM,35.6,32.0,87,30.06,2.8,South,3.5,-,N/A,,Scattered Clouds,170,2013-03-01 05:30:00
6:00 AM,35,32,83,30.10,2,SE,4.6,,,,Mist,130,2013-03-01 06:00:00
6:00 AM,33.8,32.0,93,30.04,-9999.0,SE,4.6,-,N/A,,Scattered Clouds,130,2013-03-01 06:00:00
6:30 AM,35.6,32.0,87,30.04,3.7,SSE,5.8,-,N/A,,Scattered Clouds,150,2013-03-01 06:30:00
7:00 AM,33.8,32.0,93,30.06,1.6,SE,4.6,-,N/A,,Scattered Clouds,140,2013-03-01 07:00:00
7:30 AM,33.8,32.0,93,30.06,3.1,SSE,4.6,-,N/A,,Scattered Clouds,160,2013-03-01 07:30:00
7:39 AM,35.6,33.8,93,30.06,1.9,SE,4.6,-,N/A,,Scattered Clouds,140,2013-03-01 07:39:00
8:00 AM,37.4,35.6,93,30.06,1.9,SSE,4.6,-,N/A,,Scattered Clouds,150,2013-03-01 08:00:00
8:30 AM,41.0,39.2,93,30.06,0.9,SSE,5.8,-,N/A,,Scattered Clouds,160,2013-03-01 08:30:00
9:00 AM,46,43,85,30.10,6,SE,5.8,,,,Clear,140,2013-03-01 09:00:00
9:00 AM,46.4,42.8,87,30.06,-9999.0,SE,5.8,-,N/A,,Clear,140,2013-03-01 09:00:00
9:30 AM,50.0,46.4,87,30.06,-9999.0,SE,6.9,-,N/A,,Clear,130,2013-03-01 09:30:00
10:00 AM,53.6,46.4,77,30.06,-9999.0,ESE,8.1,-,N/A,,Clear,120,2013-03-01 10:00:00
10:30 AM,55.4,44.6,67,30.06,6.2,East,8.1,-,N/A,,Scattered Clouds,100,2013-03-01 10:30:00
11:00 AM,55.4,44.6,67,30.06,6.2,East,6.9,-,N/A,,Scattered Clouds,90,2013-03-01 11:00:00
11:30 AM,57.2,42.8,59,30.04,6.2,East,8.1,-,N/A,,Scattered Clouds,80,2013-03-01 11:30:00
12:00 PM,58,42,43,30.04,6,East,9.2,,,,Clear,80,2013-03-01 12:00:00
12:00 PM,57.2,41.0,55,30.04,6.2,East,9.2,-,N/A,,Scattered Clouds,80,2013-03-01 12:00:00
12:30 PM,59.0,42.8,55,30.01,6.2,ENE,9.2,-,N/A,,Scattered Clouds,60,2013-03-01 12:30:00
1:00 PM,59.0,42.8,55,30.01,-9999.0,East,5.8,-,N/A,,Clear,80,2013-03-01 13:00:00
1:30 PM,60.8,42.8,52,30.01,-9999.0,NE,6.9,-,N/A,,Clear,50,2013-03-01 13:30:00
2:00 PM,60.8,41.0,48,29.98,-9999.0,NNE,9.2,-,N/A,,Clear,20,2013-03-01 14:00:00
2:30 PM,60.8,41.0,48,29.98,-9999.0,NNE,11.5,-,N/A,,Clear,20,2013-03-01 14:30:00
3:00 PM,62,40,33,29.98,6,NNE,12.7,,,,Partly Cloudy,30,2013-03-01 15:00:00
3:00 PM,62.6,41.0,45,29.98,-9999.0,NNE,12.7,-,N/A,,Clear,30,2013-03-01 15:00:00
3:30 PM,60.8,46.4,59,29.98,-9999.0,North,16.1,-,N/A,,Clear,10,2013-03-01 15:30:00
4:00 PM,60.8,44.6,55,29.98,-9999.0,NNE,15.0,-,N/A,,Clear,20,2013-03-01 16:00:00
4:30 PM,59.0,44.6,59,29.98,-9999.0,NNE,16.1,-,N/A,,Clear,20,2013-03-01 16:30:00
5:00 PM,59.0,44.6,59,29.98,-9999.0,NNE,13.8,-,N/A,,Clear,30,2013-03-01 17:00:00
5:30 PM,57.2,44.6,63,29.98,-9999.0,NNE,15.0,-,N/A,,Clear,30,2013-03-01 17:30:00
6:00 PM,56,44,53,29.97,6,NNE,15.0,,,,Clear,30,2013-03-01 18:00:00
6:00 PM,55.4,42.8,63,29.95,-9999.0,NNE,15.0,-,N/A,,Clear,30,2013-03-01 18:00:00
6:30 PM,53.6,42.8,67,29.98,-9999.0,NNE,15.0,-,N/A,,Clear,30,2013-03-01 18:30:00
7:00 PM,53.6,42.8,67,29.98,-9999.0,NNE,12.7,-,N/A,,Clear,30,2013-03-01 19:00:00
7:30 PM,51.8,44.6,76,29.98,-9999.0,NNE,13.8,-,N/A,,Clear,30,2013-03-01 19:30:00
8:00 PM,51.8,44.6,76,29.98,-9999.0,NNE,13.8,-,N/A,,Clear,30,2013-03-01 20:00:00
8:30 PM,51.8,44.6,76,29.98,6.2,NE,13.8,-,N/A,,Scattered Clouds,40,2013-03-01 20:30:00
9:00 PM,52,43,64,29.99,6,NE,12.7,,,,,50,2013-03-01 21:00:00
9:00 PM,51.8,42.8,71,29.98,6.2,NE,12.7,-,N/A,,Scattered Clouds,50,2013-03-01 21:00:00
9:30 PM,51.8,42.8,71,29.98,6.2,NE,13.8,-,N/A,,Scattered Clouds,50,2013-03-01 21:30:00
10:00 PM,50.0,42.8,76,29.95,6.2,NE,12.7,-,N/A,,Scattered Clouds,50,2013-03-01 22:00:00
10:30 PM,50.0,42.8,76,29.95,6.2,ENE,12.7,-,N/A,,Scattered Clouds,60,2013-03-01 22:30:00
11:00 PM,50.0,42.8,76,29.95,6.2,NE,10.4,-,N/A,,Scattered Clouds,50,2013-03-01 23:00:00
11:30 PM,48.2,42.8,82,29.95,6.2,NE,8.1,-,N/A,,Scattered Clouds,40,2013-03-01 23:30:00